| time (UTC) | temp C | wind direction | speed KPH | gust KPH | rain 1hr cm | rain 24hr cm | rain mn cm | humidity % | barometer mb |
| 20260906221532 | 30 | 223 | 4.8 | 9.7 | 0.00 | 0.00 | 0.00 | 47 | 1019.2 |
| 20260906220632 | 30 | 235 | 4.8 | 11.3 | 0.00 | 0.00 | 0.00 | 46 | 1019.1 |
| 20260906215732 | 31 | 229 | 4.8 | 12.9 | 0.00 | 0.00 | 0.00 | 44 | 1019.3 |
| 20260906214832 | 31 | 245 | 4.8 | 11.3 | 0.00 | 0.00 | 0.00 | 42 | 1019.3 |
| 20260906213932 | 32 | 248 | 8.0 | 17.7 | 0.00 | 0.00 | 0.00 | 40 | 1019.3 |
| 20260906213032 | 32 | 244 | 9.7 | 17.7 | 0.00 | 0.00 | 0.00 | 40 | 1019.4 |
| 20260906212132 | 32 | 243 | 8.0 | 19.3 | 0.00 | 0.00 | 0.00 | 39 | 1019.4 |
| 20260906211232 | 32 | 259 | 6.4 | 20.9 | 0.00 | 0.00 | 0.00 | 39 | 1019.4 |
| 20260906210332 | 32 | 261 | 6.4 | 16.1 | 0.00 | 0.00 | 0.00 | 39 | 1019.2 |
| 20260906205432 | 32 | 269 | 8.0 | 16.1 | 0.00 | 0.00 | 0.00 | 39 | 1019.1 |
| 20260906204532 | 32 | 274 | 8.0 | 16.1 | 0.00 | 0.00 | 0.00 | 40 | 1019.0 |
| 20260906203632 | 32 | 273 | 8.0 | 17.7 | 0.00 | 0.00 | 0.00 | 40 | 1019.0 |
| 20260906202732 | 32 | 272 | 8.0 | 19.3 | 0.00 | 0.00 | 0.00 | 40 | 1018.9 |
| 20260906201853 | 32 | 250 | 8.0 | 19.3 | 0.00 | 0.00 | 0.00 | 40 | 1018.6 |
| 20260906200953 | 33 | 250 | 9.7 | 16.1 | 0.00 | 0.00 | 0.00 | 40 | 1018.5 |
| 20260906200031 | 33 | 248 | 11.3 | 19.3 | 0.00 | 0.00 | 0.00 | 39 | 1018.1 |
| 20260906195153 | 33 | 246 | 9.7 | 17.7 | 0.00 | 0.00 | 0.00 | 38 | 1018.0 |
| 20260906194231 | 34 | 245 | 9.7 | 20.9 | 0.00 | 0.00 | 0.00 | 37 | 1017.7 |
| 20260906193353 | 34 | 242 | 8.0 | 17.7 | 0.00 | 0.00 | 0.00 | 37 | 1017.6 |
| 20260906192431 | 35 | 234 | 8.0 | 14.5 | 0.00 | 0.00 | 0.00 | 36 | 1017.4 |
| 20260906191531 | 35 | 244 | 8.0 | 19.3 | 0.00 | 0.00 | 0.00 | 36 | 1017.2 |
| 20260906190631 | 35 | 252 | 8.0 | 19.3 | 0.00 | 0.00 | 0.00 | 35 | 1017.1 |
| 20260906185731 | 36 | 250 | 6.4 | 17.7 | 0.00 | 0.00 | 0.00 | 35 | 1016.9 |
| 20260906184831 | 36 | 255 | 6.4 | 12.9 | 0.00 | 0.00 | 0.00 | 34 | 1016.8 |
| 20260906183931 | 36 | 248 | 6.4 | 16.1 | 0.00 | 0.00 | 0.00 | 33 | 1016.8 |
| 20260906183031 | 37 | 241 | 6.4 | 11.3 | 0.00 | 0.00 | 0.00 | 30 | 1016.7 |
| 20260906182131 | 37 | 228 | 4.8 | 16.1 | 0.00 | 0.00 | 0.00 | 28 | 1016.6 |
| 20260906181252 | 37 | 230 | 4.8 | 8.0 | 0.00 | 0.00 | 0.00 | 27 | 1016.6 |
| 20260906180331 | 37 | 235 | 6.4 | 11.3 | 0.00 | 0.00 | 0.00 | 27 | 1016.6 |
| 20260906175431 | 38 | 235 | 6.4 | 12.9 | 0.00 | 0.00 | 0.00 | 26 | 1016.6 |
| 20260906174552 | 38 | 233 | 4.8 | 14.5 | 0.00 | 0.00 | 0.00 | 25 | 1016.6 |
| 20260906173631 | 38 | 234 | 6.4 | 12.9 | 0.00 | 0.00 | 0.00 | 25 | 1016.7 |
| 20260906172731 | 38 | 245 | 6.4 | 12.9 | 0.00 | 0.00 | 0.00 | 24 | 1016.7 |
| 20260906171831 | 38 | 238 | 6.4 | 12.9 | 0.00 | 0.00 | 0.00 | 23 | 1016.6 |
| 20260906170931 | 38 | 240 | 6.4 | 11.3 | 0.00 | 0.00 | 0.00 | 23 | 1016.7 |
| 20260906170031 | 38 | 243 | 6.4 | 12.9 | 0.00 | 0.00 | 0.00 | 24 | 1016.6 |
| 20260906165131 | 38 | 247 | 6.4 | 16.1 | 0.00 | 0.00 | 0.00 | 24 | 1016.7 |
| 20260906164231 | 38 | 224 | 6.4 | 12.9 | 0.00 | 0.00 | 0.00 | 24 | 1016.6 |
| 20260906163352 | 38 | 227 | 6.4 | 12.9 | 0.00 | 0.00 | 0.00 | 24 | 1016.7 |
| 20260906162431 | 38 | 222 | 8.0 | 19.3 | 0.00 | 0.00 | 0.00 | 24 | 1016.7 |
| 20260906161531 | 38 | 220 | 8.0 | 19.3 | 0.00 | 0.00 | 0.00 | 24 | 1016.7 |
| 20260906160631 | 38 | 212 | 8.0 | 17.7 | 0.00 | 0.00 | 0.00 | 25 | 1016.7 |
| 20260906155731 | 38 | 220 | 6.4 | 14.5 | 0.00 | 0.00 | 0.00 | 25 | 1016.7 |
| 20260906154831 | 38 | 219 | 8.0 | 14.5 | 0.00 | 0.00 | 0.00 | 26 | 1016.8 |
| 20260906153931 | 38 | 222 | 8.0 | 14.5 | 0.00 | 0.00 | 0.00 | 25 | 1016.8 |
| 20260906153052 | 39 | 222 | 8.0 | 14.5 | 0.00 | 0.00 | 0.00 | 25 | 1016.7 |
| 20260906152152 | 39 | 215 | 6.4 | 14.5 | 0.00 | 0.00 | 0.00 | 26 | 1016.8 |
| 20260906151231 | 40 | 224 | 4.8 | 12.9 | 0.00 | 0.00 | 0.00 | 25 | 1016.8 |
| 20260906150331 | 40 | 229 | 3.2 | 12.9 | 0.00 | 0.00 | 0.00 | 24 | 1016.8 |
| 20260906145431 | 40 | 323 | 3.2 | 6.4 | 0.00 | 0.00 | 0.00 | 24 | 1017.0 |
| 20260906144531 | 39 | 294 | 4.8 | 8.0 | 0.00 | 0.00 | 0.00 | 24 | 1017.1 |
| 20260906143631 | 39 | 227 | 4.8 | 11.3 | 0.00 | 0.00 | 0.00 | 24 | 1017.1 |
| 20260906142752 | 39 | 215 | 4.8 | 11.3 | 0.00 | 0.00 | 0.00 | 24 | 1017.2 |
| 20260906141831 | 39 | 242 | 4.8 | 11.3 | 0.00 | 0.00 | 0.00 | 24 | 1017.3 |
| 20260906140930 | 39 | 249 | 4.8 | 9.7 | 0.00 | 0.00 | 0.00 | 25 | 1017.4 |
| 20260906140030 | 38 | 248 | 6.4 | 11.3 | 0.00 | 0.00 | 0.00 | 25 | 1017.5 |
| 20260906135130 | 38 | 266 | 6.4 | 16.1 | 0.00 | 0.00 | 0.00 | 26 | 1017.6 |
| 20260906134231 | 38 | 253 | 6.4 | 12.9 | 0.00 | 0.00 | 0.00 | 26 | 1017.6 |
| 20260906133330 | 38 | 263 | 4.8 | 12.9 | 0.00 | 0.00 | 0.00 | 26 | 1017.7 |
| 20260906132430 | 38 | 246 | 4.8 | 11.3 | 0.00 | 0.00 | 0.00 | 26 | 1017.7 |
| 20260906131530 | 38 | 227 | 4.8 | 14.5 | 0.00 | 0.00 | 0.00 | 26 | 1017.9 |
| 20260906130630 | 38 | 129 | 3.2 | 11.3 | 0.00 | 0.00 | 0.00 | 27 | 1017.9 |
| 20260906125751 | 38 | 176 | 3.2 | 8.0 | 0.00 | 0.00 | 0.00 | 26 | 1018.0 |
| 20260906124830 | 37 | 359 | 4.8 | 8.0 | 0.00 | 0.00 | 0.00 | 27 | 1018.1 |
| 20260906123930 | 37 | 37 | 3.2 | 16.1 | 0.00 | 0.00 | 0.00 | 27 | 1018.2 |
| 20260906123030 | 37 | 37 | 3.2 | 8.0 | 0.00 | 0.00 | 0.00 | 28 | 1018.3 |
| 20260906122130 | 37 | 107 | 4.8 | 14.5 | 0.00 | 0.00 | 0.00 | 28 | 1018.4 |
| 20260906121230 | 37 | 152 | 3.2 | 12.9 | 0.00 | 0.00 | 0.00 | 28 | 1018.5 |
| 20260906120330 | 36 | 321 | 3.2 | 6.4 | 0.00 | 0.00 | 0.00 | 29 | 1018.6 |
| 20260906115430 | 36 | 29 | 4.8 | 9.7 | 0.00 | 0.00 | 0.00 | 29 | 1018.6 |
| 20260906114530 | 36 | 77 | 4.8 | 11.3 | 0.00 | 0.00 | 0.00 | 29 | 1018.8 |
| 20260906113630 | 36 | 57 | 4.8 | 12.9 | 0.00 | 0.00 | 0.00 | 29 | 1018.9 |
| 20260906112730 | 36 | 69 | 3.2 | 11.3 | 0.00 | 0.00 | 0.00 | 29 | 1018.9 |
| 20260906111830 | 35 | 113 | 4.8 | 6.4 | 0.00 | 0.00 | 0.00 | 30 | 1019.0 |
| 20260906110930 | 35 | 85 | 6.4 | 12.9 | 0.00 | 0.00 | 0.00 | 31 | 1019.0 |
| 20260906110030 | 34 | 55 | 4.8 | 16.1 | 0.00 | 0.00 | 0.00 | 32 | 1019.1 |
| 20260906105130 | 34 | 356 | 4.8 | 8.0 | 0.00 | 0.00 | 0.00 | 33 | 1019.1 |
| 20260906104230 | 34 | 52 | 3.2 | 11.3 | 0.00 | 0.00 | 0.00 | 33 | 1019.3 |
| 20260906103331 | 34 | 18 | 1.6 | 8.0 | 0.00 | 0.00 | 0.00 | 33 | 1019.3 |
| 20260906102430 | 33 | 39 | 1.6 | 6.4 | 0.00 | 0.00 | 0.00 | 34 | 1019.4 |
| 20260906101530 | 33 | 44 | 1.6 | 6.4 | 0.00 | 0.00 | 0.00 | 35 | 1019.5 |
| 20260906100630 | 32 | 69 | 3.2 | 6.4 | 0.00 | 0.00 | 0.00 | 36 | 1019.4 |
| 20260906095751 | 32 | 111 | 4.8 | 11.3 | 0.00 | 0.00 | 0.00 | 37 | 1019.4 |
| 20260906094830 | 31 | 61 | 3.2 | 9.7 | 0.00 | 0.00 | 0.00 | 37 | 1019.5 |
| 20260906093951 | 31 | 91 | 3.2 | 6.4 | 0.00 | 0.00 | 0.00 | 38 | 1019.5 |
| 20260906093030 | 31 | 79 | 3.2 | 9.7 | 0.00 | 0.00 | 0.00 | 38 | 1019.5 |
| 20260906092130 | 30 | 84 | 3.2 | 9.7 | 0.00 | 0.00 | 0.00 | 39 | 1019.5 |
| 20260906091230 | 30 | 60 | 4.8 | 8.0 | 0.00 | 0.00 | 0.00 | 40 | 1019.3 |
| 20260906090330 | 29 | 72 | 4.8 | 11.3 | 0.00 | 0.00 | 0.00 | 42 | 1019.4 |
| 20260906085430 | 29 | 61 | 6.4 | 12.9 | 0.00 | 0.00 | 0.00 | 43 | 1019.4 |
| 20260906084530 | 28 | 50 | 6.4 | 14.5 | 0.00 | 0.00 | 0.00 | 44 | 1019.4 |
| 20260906083630 | 28 | 30 | 6.4 | 12.9 | 0.00 | 0.00 | 0.00 | 46 | 1019.3 |
| 20260906082730 | 27 | 36 | 8.0 | 17.7 | 0.00 | 0.00 | 0.00 | 46 | 1019.3 |
| 20260906081829 | 27 | 44 | 8.0 | 16.1 | 0.00 | 0.00 | 0.00 | 46 | 1019.1 |
| 20260906080929 | 27 | 45 | 8.0 | 16.1 | 0.00 | 0.00 | 0.00 | 48 | 1019.2 |
| 20260906080029 | 26 | 42 | 4.8 | 16.1 | 0.00 | 0.05 | 0.00 | 48 | 1019.2 |
| 20260906075151 | 26 | 68 | 6.4 | 12.9 | 0.00 | 0.08 | 0.00 | 50 | 1019.2 |
| 20260906074230 | 26 | 65 | 6.4 | 12.9 | 0.00 | 0.08 | 0.00 | 50 | 1019.2 |
| 20260906073330 | 25 | 52 | 6.4 | 11.3 | 0.00 | 0.08 | 0.00 | 51 | 1019.3 |
| 20260906072429 | 25 | 48 | 6.4 | 14.5 | 0.00 | 0.08 | 0.00 | 52 | 1019.4 |
| 20260906071550 | 25 | 55 | 8.0 | 16.1 | 0.00 | 0.10 | 0.00 | 53 | 1019.2 |
| 20260906070629 | 25 | 58 | 8.0 | 16.1 | 0.00 | 0.10 | 0.00 | 53 | 1019.1 |
| 20260906065750 | 25 | 61 | 6.4 | 17.7 | 0.00 | 0.10 | 0.00 | 54 | 1018.9 |
| 20260906064850 | 25 | 48 | 6.4 | 12.9 | 0.00 | 0.10 | 0.00 | 55 | 1018.8 |
| 20260906063929 | 25 | 39 | 6.4 | 14.5 | 0.00 | 0.10 | 0.00 | 56 | 1018.7 |
| 20260906063029 | 25 | 42 | 6.4 | 9.7 | 0.00 | 0.10 | 0.00 | 57 | 1018.7 |
| 20260906062129 | 25 | 51 | 8.0 | 14.5 | 0.00 | 0.10 | 0.00 | 58 | 1018.5 |
| 20260906061229 | 24 | 39 | 6.4 | 14.5 | 0.00 | 0.10 | 0.00 | 59 | 1018.6 |
| 20260906060329 | 24 | 52 | 4.8 | 12.9 | 0.00 | 0.10 | 0.00 | 63 | 1018.6 |
| 20260906055429 | 24 | 67 | 4.8 | 9.7 | 0.00 | 0.10 | 0.00 | 62 | 1018.4 |
| 20260906054529 | 25 | 60 | 6.4 | 14.5 | 0.00 | 0.10 | 0.00 | 62 | 1018.3 |
| 20260906053629 | 25 | 54 | 6.4 | 12.9 | 0.00 | 0.10 | 0.00 | 63 | 1018.2 |
| 20260906052750 | 25 | 49 | 6.4 | 12.9 | 0.00 | 0.10 | 0.00 | 63 | 1018.2 |
| 20260906051829 | 25 | 50 | 4.8 | 12.9 | 0.00 | 0.10 | 0.00 | 63 | 1018.3 |
| 20260906050950 | 25 | 57 | 3.2 | 6.4 | 0.00 | 0.10 | 0.00 | 60 | 1018.3 |
| 20260906050029 | 25 | 57 | 3.2 | 9.7 | 0.00 | 0.10 | 0.00 | 59 | 1018.3 |
| 20260906045129 | 25 | 16 | 3.2 | 8.0 | 0.00 | 0.10 | 0.00 | 58 | 1018.2 |
| 20260906044229 | 25 | 32 | 3.2 | 6.4 | 0.00 | 0.10 | 0.00 | 59 | 1018.2 |
| 20260906043350 | 25 | 31 | 3.2 | 6.4 | 0.00 | 0.10 | 0.00 | 57 | 1018.3 |
| 20260906042450 | 25 | 53 | 4.8 | 8.0 | 0.00 | 0.10 | 0.00 | 56 | 1018.2 |
| 20260906041529 | 25 | 62 | 6.4 | 11.3 | 0.00 | 0.10 | 0.00 | 55 | 1018.2 |
| 20260906040629 | 26 | 34 | 4.8 | 8.0 | 0.00 | 0.10 | 0.00 | 54 | 1018.3 |
| 20260906035729 | 26 | 13 | 4.8 | 8.0 | 0.00 | 0.10 | 0.00 | 54 | 1018.5 |
| 20260906034850 | 26 | 12 | 4.8 | 9.7 | 0.00 | 0.10 | 0.00 | 54 | 1018.5 |
| 20260906033929 | 26 | 19 | 6.4 | 14.5 | 0.00 | 0.10 | 0.00 | 54 | 1018.5 |
| 20260906033029 | 26 | 32 | 6.4 | 14.5 | 0.00 | 0.10 | 0.00 | 54 | 1018.4 |
| 20260906032129 | 26 | 19 | 6.4 | 12.9 | 0.00 | 0.10 | 0.00 | 54 | 1018.4 |
| 20260906031229 | 26 | 27 | 4.8 | 14.5 | 0.00 | 0.10 | 0.00 | 52 | 1018.4 |
| 20260906030329 | 27 | 351 | 4.8 | 12.9 | 0.00 | 0.10 | 0.00 | 51 | 1018.3 |
| 20260906025429 | 27 | 335 | 4.8 | 8.0 | 0.00 | 0.10 | 0.00 | 51 | 1018.3 |
| 20260906024550 | 27 | 355 | 3.2 | 8.0 | 0.00 | 0.10 | 0.00 | 50 | 1018.2 |
| 20260906023629 | 27 | 24 | 3.2 | 6.4 | 0.00 | 0.10 | 0.00 | 49 | 1018.3 |
| 20260906022749 | 27 | 8 | 3.2 | 6.4 | 0.00 | 0.10 | 0.00 | 49 | 1018.3 |
| 20260906021828 | 27 | 346 | 3.2 | 6.4 | 0.00 | 0.10 | 0.00 | 50 | 1018.3 |
| 20260906020928 | 27 | 319 | 1.6 | 6.4 | 0.00 | 0.10 | 0.00 | 51 | 1018.3 |
| 20260906020049 | 27 | 298 | 1.6 | 6.4 | 0.00 | 0.10 | 0.00 | 54 | 1018.4 |
| 20260906015128 | 27 | 254 | 0.0 | 3.2 | 0.00 | 0.10 | 0.00 | 59 | 1018.3 |
| 20260906014249 | 27 | 254 | 0.0 | 1.6 | 0.00 | 0.10 | 0.00 | 61 | 1018.3 |
| 20260906013328 | 27 | 0 | 0.0 | 0.0 | 0.00 | 0.10 | 0.00 | 62 | 1018.4 |
| 20260906012428 | 27 | 254 | 0.0 | 1.6 | 0.00 | 0.10 | 0.00 | 61 | 1018.4 |
| 20260906011549 | 27 | 254 | 1.6 | 3.2 | 0.00 | 0.10 | 0.00 | 62 | 1018.4 |
| 20260906010628 | 27 | 254 | 1.6 | 4.8 | 0.00 | 0.10 | 0.00 | 61 | 1018.5 |
| 20260906005728 | 27 | 254 | 1.6 | 1.6 | 0.00 | 0.10 | 0.00 | 60 | 1018.6 |
| 20260906004828 | 27 | 255 | 4.8 | 6.4 | 0.00 | 0.10 | 0.00 | 59 | 1018.5 |
| 20260906003949 | 28 | 284 | 1.6 | 9.7 | 0.00 | 0.10 | 0.00 | 56 | 1018.5 |
| 20260906003028 | 28 | 341 | 0.0 | 1.6 | 0.00 | 0.10 | 0.00 | 47 | 1018.4 |
| 20260906002128 | 28 | 341 | 0.0 | 3.2 | 0.00 | 0.10 | 0.00 | 47 | 1018.2 |
| 20260906001249 | 29 | 341 | 1.6 | 3.2 | 0.00 | 0.10 | 0.00 | 46 | 1018.4 |
| 20260906000349 | 29 | 341 | 3.2 | 4.8 | 0.00 | 0.10 | 0.00 | 47 | 1018.5 |
| 20260905235449 | 29 | 349 | 3.2 | 6.4 | 0.00 | 0.10 | 0.00 | 46 | 1018.4 |
| 20260905234528 | 29 | 358 | 1.6 | 6.4 | 0.00 | 0.10 | 0.00 | 47 | 1018.4 |
| 20260905233628 | 30 | 350 | 1.6 | 4.8 | 0.00 | 0.10 | 0.00 | 47 | 1018.5 |
| 20260905232728 | 30 | 354 | 3.2 | 4.8 | 0.00 | 0.10 | 0.00 | 47 | 1018.5 |
| 20260905231828 | 30 | 355 | 3.2 | 4.8 | 0.00 | 0.10 | 0.00 | 46 | 1018.5 |
| 20260905230949 | 30 | 354 | 1.6 | 4.8 | 0.00 | 0.10 | 0.00 | 46 | 1018.4 |
| 20260905230028 | 30 | 350 | 1.6 | 4.8 | 0.00 | 0.10 | 0.00 | 47 | 1018.5 |
| 20260905225128 | 30 | 350 | 1.6 | 3.2 | 0.00 | 0.10 | 0.00 | 48 | 1018.4 |
| 20260905224228 | 30 | 350 | 1.6 | 4.8 | 0.00 | 0.10 | 0.00 | 48 | 1018.3 |
| 20260905223328 | 30 | 351 | 3.2 | 4.8 | 0.00 | 0.10 | 0.00 | 48 | 1018.3 |
| 20260905222428 | 30 | 348 | 3.2 | 6.4 | 0.00 | 0.10 | 0.00 | 48 | 1018.3 |